DFDEM EGKB-LFDJ

Flight info

Callsign DFDEM
Flight time N/A
Altitude 20000
Route DET M604 LYD M189 WAFFU/N0299F190 DCT SITET/N0295F190 A34 LGL H20 BENAR A34 AMB R10 SOPIL A34 OLINO R10 BALAN A34 LMG G36 GAI B31 MONIX/N0273F190 DCT RAPES/N0267F190
Aircraft TBM8/L-SDFGRY/SB2

Departure

Time 2026-04-17 12:07
Airport London Biggin Hill Airport (EGKB)

Arrival

Time N/A
Airport Aérodrome de Pamiers - Les Pujols (LFDJ)
Time Latitude Longitude Altitude Speed Heading
2026-04-17 11:50 51.32202 0.02851 511 ft 0 kts 250°
2026-04-17 12:01 51.32202 0.02829 508 ft 6 kts 292°
2026-04-17 12:01 51.32222 0.02802 503 ft 0 kts 326°
2026-04-17 12:02 51.32236 0.02793 503 ft 9 kts 353°
2026-04-17 12:03 51.32290 0.02867 499 ft 11 kts 15°
2026-04-17 12:03 51.32345 0.02827 495 ft 8 kts 285°
2026-04-17 12:03 51.32384 0.02787 492 ft 11 kts 27°
2026-04-17 12:03 51.32462 0.02849 490 ft 15 kts 26°
2026-04-17 12:04 51.32569 0.02930 486 ft 18 kts 23°
2026-04-17 12:04 51.32660 0.03062 485 ft 19 kts 45°
2026-04-17 12:04 51.32749 0.03204 482 ft 18 kts 46°
2026-04-17 12:04 51.32841 0.03356 470 ft 20 kts 45°
2026-04-17 12:05 51.32941 0.03496 566 ft 19 kts 14°
2026-04-17 12:05 51.33049 0.03557 558 ft 16 kts 36°
2026-04-17 12:05 51.33161 0.03612 556 ft 16 kts
2026-04-17 12:05 51.33250 0.03590 558 ft 10 kts 323°
2026-04-17 12:06 51.33289 0.03528 554 ft 7 kts 315°
2026-04-17 12:06 51.33326 0.03465 553 ft 9 kts 306°
2026-04-17 12:06 51.33307 0.03403 555 ft 17 kts 204°
2026-04-17 12:06 51.33021 0.03184 569 ft 73 kts 206°
2026-04-17 12:07 51.32477 0.02756 665 ft 100 kts 206°
2026-04-17 12:07 51.31766 0.02361 1108 ft 114 kts 182°
2026-04-17 12:07 51.31013 0.02984 1494 ft 137 kts 140°
2026-04-17 12:07 51.30469 0.04257 2068 ft 140 kts 128°
2026-04-17 12:08 51.29968 0.05600 2652 ft 142 kts 129°
2026-04-17 12:08 51.29450 0.06994 3171 ft 152 kts 129°
2026-04-17 12:08 51.28909 0.08478 3568 ft 160 kts 129°
2026-04-17 12:08 51.28339 0.10037 3941 ft 165 kts 128°
2026-04-17 12:09 51.27760 0.11638 4303 ft 168 kts 127°
2026-04-17 12:09 51.27169 0.13290 4659 ft 176 kts 127°
2026-04-17 12:09 51.26546 0.15026 5084 ft 182 kts 126°
2026-04-17 12:09 51.25915 0.16786 5624 ft 184 kts 126°
2026-04-17 12:10 51.25274 0.18568 6151 ft 187 kts 125°
2026-04-17 12:10 51.24623 0.20366 6681 ft 188 kts 125°
2026-04-17 12:10 51.23965 0.22172 7201 ft 189 kts 125°
2026-04-17 12:10 51.23300 0.23996 7706 ft 191 kts 126°
2026-04-17 12:11 51.22633 0.25842 8214 ft 193 kts 126°
2026-04-17 12:11 51.21961 0.27698 8724 ft 195 kts 126°
2026-04-17 12:11 51.21280 0.29574 9219 ft 196 kts 126°
2026-04-17 12:12 51.20131 0.32738 10039 ft 199 kts 127°
2026-04-17 12:12 51.19435 0.34658 10515 ft 201 kts 127°
2026-04-17 12:12 51.18733 0.36589 10988 ft 202 kts 127°
2026-04-17 12:12 51.18029 0.38532 11477 ft 203 kts 128°
2026-04-17 12:13 51.17320 0.40481 11965 ft 204 kts 128°
2026-04-17 12:13 51.16606 0.42442 12451 ft 205 kts 128°
2026-04-17 12:13 51.15887 0.44413 12928 ft 207 kts 128°
2026-04-17 12:13 51.15162 0.46400 13408 ft 208 kts 129°
2026-04-17 12:14 51.14431 0.48398 13847 ft 209 kts 129°
2026-04-17 12:14 51.13700 0.50401 14274 ft 210 kts 129°
2026-04-17 12:14 51.12965 0.52416 14693 ft 211 kts 129°
2026-04-17 12:14 51.12221 0.54447 15125 ft 213 kts 129°
2026-04-17 12:15 51.11475 0.56488 15570 ft 214 kts 129°
2026-04-17 12:15 51.10720 0.58540 16010 ft 216 kts 129°
2026-04-17 12:15 51.09961 0.60611 16447 ft 217 kts 129°
2026-04-17 12:15 51.09195 0.62696 16882 ft 219 kts 129°
2026-04-17 12:16 51.08424 0.64795 17326 ft 220 kts 129°
2026-04-17 12:16 51.07650 0.66905 17758 ft 222 kts 129°
2026-04-17 12:16 51.06874 0.69010 18187 ft 223 kts 129°
2026-04-17 12:16 51.06088 0.71143 18568 ft 225 kts 129°
2026-04-17 12:17 51.05293 0.73301 18920 ft 228 kts 129°
2026-04-17 12:17 51.04450 0.75549 18985 ft 245 kts 129°
2026-04-17 12:17 51.03544 0.77943 19034 ft 259 kts 129°
2026-04-17 12:17 51.02578 0.80434 19084 ft 268 kts 133°
2026-04-17 12:18 51.01248 0.82448 19130 ft 263 kts 156°
2026-04-17 12:18 50.99571 0.83501 19162 ft 258 kts 176°
2026-04-17 12:18 50.97797 0.83540 19185 ft 254 kts 195°
2026-04-17 12:18 50.96131 0.82626 19196 ft 254 kts 211°
2026-04-17 12:19 50.94667 0.81073 19193 ft 254 kts 220°
2026-04-17 12:19 50.93295 0.79287 19184 ft 256 kts 223°
2026-04-17 12:19 50.91954 0.77465 19177 ft 258 kts 223°
2026-04-17 12:19 50.90588 0.75610 19177 ft 259 kts 223°
2026-04-17 12:20 50.89203 0.73761 19176 ft 260 kts 222°
2026-04-17 12:20 50.87809 0.71930 19185 ft 261 kts 222°
2026-04-17 12:20 50.86404 0.70111 19191 ft 261 kts 221°
2026-04-17 12:20 50.84992 0.68300 19200 ft 262 kts 221°
2026-04-17 12:21 50.83575 0.66490 19196 ft 262 kts 221°
2026-04-17 12:21 50.82151 0.64678 19201 ft 262 kts 221°
2026-04-17 12:21 50.80728 0.62869 19204 ft 263 kts 221°
2026-04-17 12:21 50.79303 0.61060 19205 ft 263 kts 221°
2026-04-17 12:22 50.77876 0.59251 19206 ft 263 kts 221°
2026-04-17 12:22 50.76445 0.57439 19208 ft 263 kts 221°
2026-04-17 12:22 50.75016 0.55631 19201 ft 263 kts 221°
2026-04-17 12:22 50.73558 0.53879 19213 ft 264 kts 217°
2026-04-17 12:23 50.72065 0.52202 19209 ft 263 kts 218°
2026-04-17 12:23 50.70616 0.50500 19210 ft 263 kts 219°
2026-04-17 12:23 50.69171 0.48731 19215 ft 263 kts 220°
2026-04-17 12:23 50.67739 0.46940 19213 ft 263 kts 220°
2026-04-17 12:24 50.66310 0.45135 19219 ft 262 kts 220°
2026-04-17 12:24 50.64890 0.43339 19215 ft 262 kts 220°
2026-04-17 12:24 50.63465 0.41539 19212 ft 262 kts 220°
2026-04-17 12:24 50.62044 0.39744 19213 ft 262 kts 220°
2026-04-17 12:25 50.60620 0.37955 19216 ft 262 kts 220°
2026-04-17 12:25 50.59197 0.36175 19217 ft 262 kts 219°
2026-04-17 12:25 50.57663 0.34584 19219 ft 264 kts 212°
2026-04-17 12:25 50.55987 0.33390 19218 ft 265 kts 206°
2026-04-17 12:26 50.54300 0.32204 19221 ft 265 kts 208°
2026-04-17 12:26 50.52635 0.30964 19219 ft 265 kts 209°
2026-04-17 12:26 50.50972 0.29718 19221 ft 265 kts 208°
2026-04-17 12:26 50.49330 0.28493 19222 ft 265 kts 208°
2026-04-17 12:27 50.47664 0.27260 19215 ft 265 kts 208°
2026-04-17 12:27 50.45996 0.26031 19215 ft 265 kts 208°
2026-04-17 12:27 50.44323 0.24805 19216 ft 265 kts 208°
2026-04-17 12:27 50.42649 0.23583 19218 ft 265 kts 208°
2026-04-17 12:28 50.40978 0.22364 19208 ft 265 kts 208°
2026-04-17 12:28 50.39306 0.21147 19214 ft 265 kts 208°
2026-04-17 12:28 50.37632 0.19931 19215 ft 265 kts 208°
2026-04-17 12:28 50.35957 0.18715 19219 ft 265 kts 208°
2026-04-17 12:29 50.34298 0.17512 19217 ft 266 kts 208°
2026-04-17 12:29 50.32620 0.16296 19219 ft 266 kts 208°
2026-04-17 12:29 50.30945 0.15083 19221 ft 266 kts 208°
2026-04-17 12:29 50.29262 0.13865 19221 ft 266 kts 208°
2026-04-17 12:30 50.27582 0.12651 19219 ft 266 kts 208°
2026-04-17 12:30 50.25898 0.11433 19219 ft 266 kts 208°
2026-04-17 12:30 50.24219 0.10221 19221 ft 266 kts 208°
2026-04-17 12:30 50.22537 0.09008 19220 ft 266 kts 208°
2026-04-17 12:31 50.20856 0.07795 19216 ft 266 kts 208°
2026-04-17 12:31 50.19174 0.06584 19203 ft 266 kts 208°
2026-04-17 12:31 50.17490 0.05373 19210 ft 267 kts 208°
2026-04-17 12:31 50.15805 0.04160 19214 ft 267 kts 208°
2026-04-17 12:32 50.14114 0.02946 19215 ft 267 kts 208°
2026-04-17 12:32 50.12424 0.01732 19216 ft 268 kts 208°
2026-04-17 12:32 50.10658 0.00764 19216 ft 273 kts 196°
2026-04-17 12:32 50.08751 0.00592 19215 ft 280 kts 180°
2026-04-17 12:33 50.06836 0.01339 19219 ft 286 kts 167°
2026-04-17 12:33 50.04931 0.02202 19220 ft 284 kts 171°
2026-04-17 12:33 50.03011 0.02927 19221 ft 284 kts 172°
2026-04-17 12:33 50.01087 0.03630 19220 ft 284 kts 172°
2026-04-17 12:34 49.99163 0.04342 19217 ft 284 kts 172°
2026-04-17 12:34 49.97240 0.05068 19217 ft 284 kts 172°
2026-04-17 12:34 49.95344 0.05796 19210 ft 285 kts 172°
2026-04-17 12:34 49.93421 0.06542 19216 ft 285 kts 172°
2026-04-17 12:35 49.91498 0.07291 19220 ft 285 kts 172°
2026-04-17 12:35 49.89573 0.08044 19221 ft 285 kts 171°
2026-04-17 12:35 49.87648 0.08798 19222 ft 286 kts 171°
2026-04-17 12:35 49.85721 0.09552 19221 ft 286 kts 171°
2026-04-17 12:37 49.72211 0.14827 19211 ft 286 kts 171°
2026-04-17 12:37 49.70279 0.15578 19212 ft 286 kts 171°
2026-04-17 12:38 49.68346 0.16331 19212 ft 287 kts 171°
2026-04-17 12:38 49.66411 0.17092 19216 ft 287 kts 171°
2026-04-17 12:38 49.64477 0.17871 19217 ft 287 kts 171°
2026-04-17 12:38 49.62542 0.18657 19222 ft 288 kts 171°
2026-04-17 12:39 49.60603 0.19443 19218 ft 288 kts 171°
2026-04-17 12:39 49.58663 0.20228 19217 ft 288 kts 171°